This demonstration page uses our WeatherBlox Daily Observations layout. Learn more.

Left ArrowRight Arrow

Hourly Observations for October 26, 2015

Temp ( °F °C ) Dew Point ( °F °C ) Humidity (%) Winds ( mph kmh ) Pressure ( in mb ) Visibility ( mi km ) Precip ( " mm )
12:51 am 00:51 Clear 65 18.3 45 7.2 49 49 E 9 15 29.92 1013 10 16 N/A
1:51 am 01:51 Mostly Clear 64 17.8 46 7.8 52 52 E 8 13 29.92 1013 10 16 N/A
2:51 am 02:51 Cloudy 65 18.3 43 6.1 45 45 E 10 17 29.91 1013 10 16 N/A
3:51 am 03:51 Partly Cloudy 64 17.8 44 6.7 48 48 ESE 9 15 29.92 1013 10 16 N/A
4:51 am 04:51 Clear 60 15.6 45 7.2 58 58 ESE 8 13 29.93 1013 10 16 N/A
5:51 am 05:51 Mostly Cloudy 60 15.6 45 7.2 58 58 ESE 7 11 29.96 1015 10 16 N/A
6:51 am 06:51 Mostly Sunny 61 16.1 45 7.2 56 56 ESE 13 20 29.96 1015 10 16 N/A
7:51 am 07:51 Sunny 65 18.3 44 6.7 47 47 ESE 12 19 29.98 1015 10 16 N/A
8:51 am 08:51 Sunny 68 20 38 3.3 33 33 SE 9 15 29.98 1015 10 16 N/A
9:51 am 09:51 Partly Cloudy 70 21.1 40 4.4 34 34 SSE 8 13 29.98 1015 10 16 N/A
10:51 am 10:51 Mostly Cloudy 73 22.8 39 3.9 29 29 SSE 8 13 29.95 1014 10 16 N/A
11:51 am 11:51 Mostly Sunny 77 25 38 3.3 24 24 VRB 5 7 29.92 1013 10 16 N/A
12:51 pm 12:51 Sunny 76 24.4 38 3.3 25 25 VRB 6 9 29.88 1012 10 16 N/A
1:51 pm 13:51 Sunny 79 26.1 39 3.9 24 24 SSE 7 11 29.85 1011 10 16 N/A
2:51 pm 14:51 Sunny 79 26.1 40 4.4 25 25 N N/A 29.83 1010 10 16 N/A
3:51 pm 15:51 Mostly Sunny 79 26.1 41 5 26 26 VRB 5 7 29.82 1010 10 16 N/A
4:51 pm 16:51 Sunny 77 25 42 5.6 29 29 W 7 11 29.83 1010 10 16 N/A
5:51 pm 17:51 Clear 72 22.2 44 6.7 37 37 W 6 9 29.83 1010 10 16 N/A
6:51 pm 18:51 Clear 67 19.4 45 7.2 45 45 N 7 11 29.85 1011 10 16 N/A
7:51 pm 19:51 Clear 67 19.4 45 7.2 45 45 NW 5 7 29.85 1011 10 16 N/A
8:51 pm 20:51 Clear 63 17.2 46 7.8 54 54 E 3 6 29.87 1011 10 16 N/A
9:51 pm 21:51 Clear 64 17.8 44 6.7 48 48 N N/A 29.88 1012 10 16 N/A
10:51 pm 22:51 Clear 59 15 45 7.2 60 60 N N/A 29.90 1013 10 16 N/A
11:51 pm 23:51 Clear 57 13.9 46 7.8 67 67 ESE 3 6 29.90 1012 10 16 N/A

Powered by AerisWeather